Weather Roundup
Issued by NWS

Home | Current Version | Previous Version | Text Only | Print | Product List | Glossary On
Versions: 1 2 3 4 5 6 7 8 9 10 11 12 13 14 15 16 17 18 19 20 21 22 23 24 25 26 27 28 29 30 31 32 33 34 35 36 37 38 39 40 41 42 43 44 45 46 47 48 49 50
855
NZUS93 KARX 060959
HRRWXR

CURRENT HOURLY OBSERVATIONS ACROSS
MUCH OF THE UPPER MISSISSIPPI VALLEY
NATIONAL WEATHER SERVICE LA CROSSE WI
400 AM CST SAT FEB 06 2016


...SOUTHEAST MINNESOTA...


CITY           SKY/WX    TMP DP  RH WIND       PRES   REMARKS
ROCHESTER      CLOUDY    26  24  92 W14       30.15S FOG     WCI  14
ROCHESTER/MAYO CLOUDY    28  27  96 W12       30.16S WCI  18
WINONA         CLOUDY    30  27  86 SW6       30.19S WCI  24
AUSTIN         CLOUDY    27  25  93 W10       30.17S FOG     WCI  17
ALBERT LEA     CLOUDY    27  27 100 W6        30.17S FOG     WCI  20
DODGE CENTER   CLOUDY    25  25 100 W15       30.14F WCI  12
PRESTON        CLOUDY    25  24  95 W9        30.16F FOG     WCI  15
OWATONNA       CLOUDY    25  21  86 W8        30.16S WCI  16
FARIBAULT        N/A     27  21  80 SW8       30.16S WCI  18
$$

...ELSEWHERE IN MINNESOTA...


CITY           SKY/WX    TMP DP  RH WIND       PRES   REMARKS
MINNEAPOLIS    CLOUDY    25  20  81 W7        30.16S WCI  17
INTNL FALLS    CLOUDY    19  15  84 SW5       29.98F FOG     WCI  12
DULUTH         CLOUDY    17  13  84 W8        30.02F WCI   7
RED WING       CLOUDY    28  23  80 W5        30.16S WCI  23
REDWOOD FALLS  CLOUDY    14  12  92 SW7       30.13F WCI   4
MANKATO        CLOUDY    27  21  80 SW7       30.16F WCI  19
WORTHINGTON    CLOUDY    23  19  86 SW12      30.16S VSB 1/4 WCI  12
FAIRMONT       CLOUDY    25  19  80 SW10      30.16F WCI  15
$$

...SOUTHWEST WISCONSIN...


CITY           SKY/WX    TMP DP  RH WIND       PRES   REMARKS
LA CROSSE      CLOUDY    27  23  85 W3        30.20S
PRAIRIE DU CHI CLOUDY    28  20  71 CALM      30.22S
BOSCOBEL       CLOUDY    29  22  75 SW6       30.22S WCI  23
LONE ROCK      NOT AVBL
PLATTEVILLE    CLOUDY    26  23  88 SW7       30.22F WCI  18
FORT MC COY    CLOUDY    26  23  88 W5        30.19S WCI  21
VIROQUA        CLOUDY    25  22  89 SW12      30.17S WCI  14
WIS DELLS      CLOUDY    26  19  72 SW10      30.18F WCI  16
$$

...ELSEWHERE IN WISCONSIN...


CITY           SKY/WX    TMP DP  RH WIND       PRES   REMARKS
MILWAUKEE      CLOUDY    29  21  72 SW9       30.24S WCI  20
MADISON        CLOUDY    27  20  75 MISG      30.20F
GREEN BAY      CLOUDY    25  18  74 SW9       30.16F WCI  15
EAU CLAIRE     NOT AVBL
BLACK RVR FLS  CLOUDY    26  22  85 SW3       30.17F
MEDFORD        CLOUDY    21  20  98 SW7       30.10S FOG     WCI  12
WAUSAU         CLOUDY    23  20  88 W7        30.11S WCI  15
WIS RAPIDS     CLOUDY    24  19  81 W9        30.16F WCI  14
MARSHFIELD     CLOUDY    23  19  85 W9        30.12F FOG     WCI  13
RICE LAKE      CLOUDY    24  22  93 S6        30.13F FOG     WCI  17
$$

...NORTHEAST IOWA...


CITY           SKY/WX    TMP DP  RH WIND       PRES   REMARKS
WATERLOO       CLOUDY    28  25  88 SW8       30.21F WCI  20
DUBUQUE        CLOUDY    26  22  84 S7        30.22F WCI  18
DECORAH        CLOUDY    27  27 100 SW6G12    30.17F WCI  20
MASON CITY     CLOUDY    27  25  92 W12       30.20S FOG     WCI  17
CHARLES CITY   CLOUDY    27  27 100 SW9       30.19F FOG     WCI  17
OELWEIN        CLOUDY    27  27 100 SW12      30.21S WCI  16
$$

...ELSEWHERE IN IOWA...


CITY           SKY/WX    TMP DP  RH WIND       PRES   REMARKS
DES MOINES     CLOUDY    30  26  85 SW5       30.24S WCI  25
IOWA CITY      CLOUDY    29  23  78 CALM      30.27S
FORT DODGE     CLOUDY    28  25  86 W7        30.21F WCI  21
MARSHALLTOWN   CLOUDY    29  26  89 SW9       30.21F WCI  20
CEDAR RAPIDS   CLOUDY    28  25  88 S6        30.23S WCI  22
$$

...NORTHERN ILLINOIS...


CITY           SKY/WX    TMP DP  RH WIND       PRES   REMARKS
CHICAGO-OHARE  CLOUDY    26  22  84 SW6       30.27S WCI  19
CHICAGO-MIDWAY MOCLDY    27  21  78 SW5       30.29S WCI  22
MOLINE         PTCLDY    28  21  75 SW6       30.25F WCI  22
ROCKFORD       CLOUDY    28  22  78 S7        30.27F WCI  21
PEORIA         CLOUDY    27  23  85 S5        30.30F WCI  22
$$

NOTE: "FAIR" INDICATES FEW OR NO CLOUDS BELOW 12,000 FEET WITH NO
SIGNIFICANT WEATHER AND/OR OBSTRUCTIONS TO VISIBILITY. WIND
SPEEDS ARE IN MILES-PER-HOUR.




USA.gov is the U.S. government's official web portal to all federal, state and local government web resources and services.